Regional Weather Roundup
Issued by NWS Cleveland, OH

Home | Current Version | Previous Version | Graphics & Text | Print | Product List | Glossary On
Versions: 1 2 3 4 5 6 7 8 9 10 11 12 13 14 15 16 17 18 19 20 21 22 23 24 25 26 27 28 29 30 31 32 33 34 35 36 37 38 39 40 41 42 43 44 45 46 47 48 49 50
000
ASUS41 KCLE 221910
RWRCLE
OHIO REGIONAL WEATHER ROUNDUP
NATIONAL WEATHER SERVICE WILMINGTON, OH
300 PM EDT MON MAY 22 2017

NOTE: "FAIR" INDICATES FEW OR NO CLOUDS BELOW 12,000 FEET WITH NO
SIGNIFICANT WEATHER AND/OR OBSTRUCTIONS TO VISIBILITY.

OHZ001>008-015>018-024>027-034-035-043-044-222000-
   NORTHWEST OHIO

CITY           SKY/WX    TMP DP  RH WIND       PRES   REMARKS
DEFIANCE       FAIR      67  44  43 SW13G18   30.02F
FINDLAY        FAIR      68  45  43 W13       30.03F
TOLEDO EXPRESS FAIR      67  45  45 W14G28    30.00F
TOLEDO EXEC    FAIR      68  46  45 W17G28    30.01F
LIMA           FAIR      66  48  52 W14       30.05F
$$

OHZ009>014-019>023-028>033-038-089-222000-
   NORTHEAST OHIO

CITY           SKY/WX    TMP DP  RH WIND       PRES   REMARKS
CLE-HOPKINS    PTSUNNY   67  45  45 SW14G21   30.05F
CLE-LAKEFRONT  FAIR      63  50  62 W9        30.02F
CUY CO. ARPT   MOSUNNY   64  45  48 W9        30.03F
LORAIN-ELYRIA  FAIR      64  44  48 W15       30.04F
ASHTABULA      FAIR      61  45  55 W16       30.04F
AKRON-CANTON   PTSUNNY   62  43  49 W12G18    30.05F
WOOSTER        FAIR      62  45  53 W12       30.06F
MANSFIELD      FAIR      63  45  51 W9        30.06F
YOUNGSTOWN     PTSUNNY   62  44  51 W12       30.04S
$$

OHZ042-051>053-060>062-070>072-077>081-222000-
  SOUTHWEST OHIO

CITY           SKY/WX    TMP DP  RH WIND       PRES   REMARKS
CINC-COVINGTON CLOUDY    64  41  42 CALM      30.11F
CINC-LUNKEN    FAIR      66  47  50 CALM      30.11F
HAMILTON       FAIR      67  46  47 VRB3      30.11F
DAYTON         PTSUNNY   66  44  45 CALM      30.09F
WRIGHT-PAT AFB FAIR      66  43  43 SW3       30.08F
DAYTON GENERAL FAIR      65  44  46 SW5       30.09F
WILMINGTON     FAIR      63  45  51 W3        30.10F
$$

OHZ036-037-039>041-045>050-054>059-063>069-073>076-082>088-222000-
  CENTRAL AND SOUTHEAST OHIO

CITY           SKY/WX    TMP DP  RH WIND       PRES   REMARKS
COLUMBUS       CLOUDY    64  45  49 VRB5      30.08F
OSU AIRPORT    FAIR      63  45  51 W6        30.08F
BOLTON FIELD   SUNNY     63  46  55 W3        30.09F
RICKENBACK AFB FAIR      63  43  48 W5        30.08F
NEWARK         FAIR      64  42  44 W6        30.07F
MARION         FAIR      66  44  45 MISG      30.07F
LANCASTER      FAIR      69  48  47 NW7       30.09F
ZANESVILLE     FAIR      66  46  48 NW9G20    30.07F
NEW PHILLY     FAIR      65  46  50 VRB7      30.06F
$$




USA.gov is the U.S. government's official web portal to all federal, state and local government web resources and services.